When you browse on this site, cookies collect data to enhance your experience and personalize the content and advertising you see.
Visit our Privacy Policy to learn more. By continuing to use the site, you agree to this use of cookies and data.
  • In Hungary
  • List of Countries
  • For 7 days
  • Water Temperature
  • Weather Map
  • News
  • Weather Widgets
  • user-avatar
    Login

    Hourly Weather Sherpur

    Today, 7 April, Tuesday

    Time Temperature Precipitation Wind Pressure Humidity
    00:00 +9°C° 0.9 mm 2 mps 609 mmHg 70%
    01:00 +9°C° 0.9 mm 3 mps 608 mmHg 70%
    02:00 +9°C° 0.9 mm 3 mps 608 mmHg 69%
    03:00 +8°C° 0.5 mm 3 mps 608 mmHg 71%
    04:00 +8°C° 0.5 mm 3 mps 608 mmHg 73%
    05:00 +8°C° 0 mm 1 mps 608 mmHg 72%
    06:00 +9°C° 0 mm 1 mps 608 mmHg 69%
    07:00 +9°C° 0 mm 1 mps 608 mmHg 66%
    08:00 +10°C° 0 mm 1 mps 609 mmHg 62%
    09:00 +11°C° 0 mm 1 mps 609 mmHg 58%
    10:00 +12°C° 0 mm 1 mps 610 mmHg 54%
    11:00 +13°C° 0 mm 1 mps 610 mmHg 49%
    12:00 +14°C° 0 mm 1 mps 610 mmHg 46%
    13:00 +15°C° 0 mm 1 mps 610 mmHg 42%
    14:00 +16°C° 0 mm 1 mps 610 mmHg 38%
    15:00 +16°C° 0 mm 2 mps 610 mmHg 37%
    16:00 +16°C° 0 mm 2 mps 610 mmHg 36%
    17:00 +16°C° 0 mm 2 mps 610 mmHg 35%
    18:00 +15°C° 0 mm 2 mps 610 mmHg 41%
    19:00 +14°C° 0 mm 2 mps 610 mmHg 47%
    20:00 +13°C° 0 mm 2 mps 610 mmHg 53%
    21:00 +13°C° 0 mm 2 mps 610 mmHg 54%
    22:00 +12°C° 0 mm 1 mps 610 mmHg 55%
    23:00 +12°C° 0 mm 1 mps 610 mmHg 57%

    Tomorrow, 8 April, Wednesday

    Time Temperature Precipitation Wind Pressure Humidity
    00:00 +11°C° 0 mm 1 mps 609 mmHg 57%
    01:00 +11°C° 0 mm 1 mps 609 mmHg 57%
    02:00 +10°C° 0 mm 1 mps 609 mmHg 57%
    03:00 +10°C° 0 mm 1 mps 608 mmHg 57%
    04:00 +9°C° 0 mm 0 mps 608 mmHg 57%
    05:00 +8°C° 0 mm 0 mps 608 mmHg 58%
    06:00 +9°C° 0 mm 0 mps 608 mmHg 53%
    07:00 +10°C° 0 mm 0 mps 609 mmHg 49%
    08:00 +10°C° 0 mm 0 mps 610 mmHg 44%
    09:00 +12°C° 0 mm 0 mps 610 mmHg 42%
    10:00 +13°C° 0 mm 0 mps 610 mmHg 40%
    11:00 +15°C° 0 mm 1 mps 610 mmHg 38%
    12:00 +16°C° 0 mm 1 mps 610 mmHg 36%
    13:00 +18°C° 0 mm 1 mps 610 mmHg 33%
    14:00 +19°C° 0 mm 1 mps 610 mmHg 31%
    15:00 +19°C° 0 mm 1 mps 610 mmHg 31%
    16:00 +19°C° 0 mm 1 mps 610 mmHg 31%
    17:00 +19°C° 0 mm 1 mps 610 mmHg 32%
    18:00 +18°C° 0 mm 1 mps 610 mmHg 37%
    19:00 +16°C° 0 mm 1 mps 610 mmHg 42%
    20:00 +15°C° 0 mm 1 mps 610 mmHg 48%
    21:00 +15°C° 0 mm 1 mps 610 mmHg 50%
    22:00 +14°C° 0 mm 1 mps 610 mmHg 53%
    23:00 +14°C° 0 mm 1 mps 610 mmHg 55%

    Day after tomorrow, 9 April, Thursday

    Time Temperature Precipitation Wind Pressure Humidity
    00:00 +14°C° 0 mm 1 mps 610 mmHg 56%
    01:00 +13°C° 0 mm 1 mps 609 mmHg 58%
    02:00 +12°C° 0 mm 0 mps 609 mmHg 59%
    03:00 +12°C° 0 mm 0 mps 609 mmHg 60%
    04:00 +11°C° 0 mm 0 mps 609 mmHg 62%
    05:00 +11°C° 0 mm 0 mps 608 mmHg 64%
    06:00 +11°C° 0 mm 0 mps 609 mmHg 60%
    07:00 +13°C° 0 mm 1 mps 609 mmHg 57%
    08:00 +13°C° 0 mm 1 mps 610 mmHg 54%
    09:00 +14°C° 0 mm 1 mps 610 mmHg 54%
    10:00 +14°C° 0 mm 2 mps 610 mmHg 55%
    11:00 +15°C° 0 mm 2 mps 611 mmHg 55%
    12:00 +13°C° 0.5 mm 3 mps 610 mmHg 62%
    13:00 +12°C° 0.5 mm 3 mps 609 mmHg 68%
    14:00 +10°C° 0.5 mm 4 mps 608 mmHg 75%
    15:00 +11°C° 0.2 mm 3 mps 608 mmHg 69%
    16:00 +13°C° 0.2 mm 2 mps 609 mmHg 63%
    17:00 +13°C° 0.2 mm 2 mps 609 mmHg 57%
    18:00 +13°C° 0 mm 1 mps 609 mmHg 58%
    19:00 +12°C° 0 mm 1 mps 609 mmHg 60%
    20:00 +12°C° 0 mm 1 mps 610 mmHg 61%
    21:00 +11°C° 0 mm 1 mps 610 mmHg 60%
    22:00 +11°C° 0 mm 1 mps 610 mmHg 59%
    23:00 +11°C° 0 mm 1 mps 610 mmHg 58%

    10 April, Friday

    Time Temperature Precipitation Wind Pressure Humidity
    00:00 +10°C° 0 mm 1 mps 609 mmHg 56%
    01:00 +10°C° 0 mm 1 mps 609 mmHg 54%
    02:00 +9°C° 0 mm 1 mps 608 mmHg 53%
    03:00 +9°C° 0 mm 1 mps 608 mmHg 52%
    04:00 +8°C° 0 mm 1 mps 608 mmHg 52%
    05:00 +7°C° 0 mm 0 mps 608 mmHg 51%
    06:00 +8°C° 0 mm 0 mps 608 mmHg 46%
    07:00 +9°C° 0 mm 0 mps 609 mmHg 41%
    08:00 +10°C° 0 mm 0 mps 609 mmHg 37%
    09:00 +12°C° 0 mm 0 mps 610 mmHg 34%
    10:00 +14°C° 0 mm 1 mps 610 mmHg 32%
    11:00 +15°C° 0 mm 1 mps 611 mmHg 29%
    12:00 +16°C° 0 mm 1 mps 611 mmHg 28%
    13:00 +18°C° 0 mm 1 mps 611 mmHg 26%
    14:00 +18°C° 0 mm 2 mps 612 mmHg 24%
    15:00 +18°C° 0 mm 2 mps 612 mmHg 24%
    16:00 +18°C° 0 mm 2 mps 611 mmHg 24%
    17:00 +18°C° 0 mm 2 mps 611 mmHg 23%
    18:00 +17°C° 0 mm 2 mps 612 mmHg 28%
    19:00 +16°C° 0 mm 2 mps 612 mmHg 32%
    20:00 +15°C° 0 mm 1 mps 612 mmHg 36%
    21:00 +15°C° 0 mm 1 mps 612 mmHg 38%
    22:00 +14°C° 0 mm 1 mps 612 mmHg 41%
    23:00 +13°C° 0 mm 0 mps 612 mmHg 43%

    11 April, Saturday

    Time Temperature Precipitation Wind Pressure Humidity
    00:00 +12°C° 0 mm 0 mps 612 mmHg 44%
    01:00 +12°C° 0 mm 0 mps 611 mmHg 44%
    02:00 +12°C° 0 mm 0 mps 611 mmHg 44%
    03:00 +11°C° 0 mm 0 mps 611 mmHg 44%
    04:00 +11°C° 0 mm 0 mps 610 mmHg 44%
    05:00 +11°C° 0 mm 0 mps 610 mmHg 45%
    06:00 +12°C° 0 mm 0 mps 611 mmHg 40%
    07:00 +13°C° 0 mm 0 mps 612 mmHg 36%
    08:00 +14°C° 0 mm 0 mps 612 mmHg 32%
    09:00 +15°C° 0 mm 0 mps 613 mmHg 31%
    10:00 +19°C° 0 mm 1 mps 613 mmHg 31%
    11:00 +20°C° 0 mm 1 mps 614 mmHg 30%
    12:00 +20°C° 0 mm 1 mps 614 mmHg 30%
    13:00 +21°C° 0 mm 1 mps 614 mmHg 31%
    14:00 +22°C° 0 mm 1 mps 613 mmHg 31%
    15:00 +22°C° 0 mm 1 mps 613 mmHg 31%
    16:00 +21°C° 0 mm 2 mps 613 mmHg 32%
    17:00 +21°C° 0 mm 2 mps 613 mmHg 32%
    18:00 +20°C° 0 mm 2 mps 613 mmHg 36%
    19:00 +20°C° 0 mm 1 mps 612 mmHg 41%
    20:00 +19°C° 0 mm 1 mps 612 mmHg 45%
    21:00 +18°C° 0 mm 1 mps 612 mmHg 47%
    22:00 +16°C° 0 mm 0 mps 612 mmHg 49%
    23:00 +15°C° 0 mm 0 mps 612 mmHg 51%

    12 April, Sunday

    Time Temperature Precipitation Wind Pressure Humidity
    00:00 +15°C° 0 mm 0 mps 612 mmHg 51%
    01:00 +14°C° 0 mm 0 mps 611 mmHg 52%
    02:00 +14°C° 0 mm 0 mps 611 mmHg 53%
    03:00 +13°C° 0 mm 0 mps 611 mmHg 53%
    04:00 +13°C° 0 mm 0 mps 610 mmHg 54%
    05:00 +13°C° 0 mm 1 mps 610 mmHg 55%
    06:00 +15°C° 0 mm 1 mps 611 mmHg 50%
    07:00 +16°C° 0 mm 1 mps 612 mmHg 46%
    08:00 +18°C° 0 mm 1 mps 612 mmHg 41%
    09:00 +19°C° 0 mm 1 mps 612 mmHg 39%
    10:00 +21°C° 0 mm 1 mps 613 mmHg 36%
    11:00 +22°C° 0 mm 1 mps 613 mmHg 33%
    12:00 +23°C° 0 mm 1 mps 613 mmHg 31%
    13:00 +24°C° 0 mm 1 mps 613 mmHg 30%
    14:00 +25°C° 0 mm 1 mps 613 mmHg 28%
    15:00 +25°C° 0 mm 1 mps 612 mmHg 28%
    16:00 +25°C° 0 mm 1 mps 612 mmHg 28%
    17:00 +25°C° 0 mm 1 mps 612 mmHg 28%
    18:00 +23°C° 0.1 mm 1 mps 612 mmHg 34%
    19:00 +22°C° 0.1 mm 1 mps 611 mmHg 39%
    20:00 +21°C° 0.1 mm 1 mps 611 mmHg 44%
    21:00 +20°C° 0.1 mm 1 mps 611 mmHg 46%
    22:00 +20°C° 0.1 mm 1 mps 612 mmHg 48%
    23:00 +19°C° 0.1 mm 1 mps 612 mmHg 50%
    Show more